Date String (YYYY-MM-DD hh:mm:ss) UTC,Instrument flags,absolute air pressure of the measurement (hPa),sample flow rate (lpm),inlet stack bypass flow (lpm),air temperature of the measurement (°C),ambient temperature measured by the external sensor (°C),aerosol sample conditioner tube jacket temperature (°C),OPC LED temperature (°C),internal box temperature (°C),relative humidity of the measurement (%),span deviation,mass concentration of particles derived from Lorenz-Mie calculation of OPC scattering (μg/m³),mass concentration of particles derived from Lorenz-Mie calculation of OPC scattering (μg/m³),mass concentration of particles derived from Lorenz-Mie calculation of OPC scattering (μg/m³)
DateTimeUTC,F1_M11,P_M11,Q1_M11,Q2_M11,T1_M11,T2_M11,T3_M11,T4_M11,T5_M11,U1_M11,ZSPAN_M11,X2_M11,X0_M11,X1_M11
2024-05-07 11:00:00,SystemResetWarning,0816.0,5.00,000.00,021.0,020.4,000.0,029.2,022.7,011.6,0000.0,0002.61,0005.97,0001.30
2024-05-07 11:01:00,SystemResetWarning,0816.1,5.00,000.00,021.0,020.4,000.0,029.2,022.7,011.6,0000.0,0002.54,0005.68,0001.31
2024-05-07 11:02:00,SystemResetWarning,0816.1,5.00,000.00,021.0,020.4,000.0,029.2,022.7,011.7,0000.0,0002.58,0005.85,0001.31
2024-05-07 11:03:00,SystemResetWarning,0816.1,5.01,000.00,021.0,020.4,000.0,029.2,022.6,011.6,0000.0,0002.51,0005.61,0001.31
2024-05-07 11:04:00,SystemResetWarning,0816.0,5.00,000.00,021.0,020.4,000.0,029.2,022.6,011.5,0000.0,0002.47,0005.42,0001.30
2024-05-07 11:05:00,SystemResetWarning,0816.1,5.00,000.00,021.0,020.4,000.0,029.2,022.7,011.5,0000.0,0002.49,0005.38,0001.31
2024-05-07 11:06:00,SystemResetWarning,0816.1,5.00,000.00,021.0,020.4,000.0,029.2,022.6,011.5,0000.0,0002.45,0005.34,0001.30
2024-05-07 11:07:00,SystemResetWarning,0816.1,5.01,000.00,021.0,020.4,000.0,029.2,022.6,011.6,0000.0,0002.36,0004.99,0001.29
2024-05-07 11:08:00,SystemResetWarning,0816.1,5.00,000.00,021.0,020.4,000.0,029.2,022.6,011.5,0000.0,0002.30,0004.78,0001.27
2024-05-07 11:09:00,SystemResetWarning,0816.0,5.00,000.00,021.0,020.4,000.0,029.2,022.6,011.5,0000.0,0002.30,0004.76,0001.28
2024-05-07 11:10:00,SystemResetWarning,0816.0,5.00,000.00,021.0,020.4,000.0,029.2,022.6,011.5,0000.0,0002.23,0004.49,0001.26
2024-05-07 11:11:00,SystemResetWarning,0816.0,5.00,000.00,021.0,020.4,000.0,029.2,022.6,011.5,0000.0,0002.25,0004.61,0001.25
2024-05-07 11:12:00,SystemResetWarning,0816.0,4.99,000.00,021.0,020.4,000.0,029.2,022.6,011.5,0000.0,0002.31,0004.75,0001.24
2024-05-07 11:13:00,SystemResetWarning,0816.0,5.00,000.00,021.0,020.4,000.0,029.2,022.7,011.6,0000.0,0002.28,0004.59,0001.24
2024-05-07 11:14:00,SystemResetWarning,0816.1,5.01,000.00,021.0,020.4,000.0,029.2,022.7,011.6,0000.0,0002.33,0005.01,0001.24
2024-05-07 11:15:00,SystemResetWarning,0816.1,5.01,000.00,021.0,020.4,000.0,029.2,022.7,011.8,0000.0,0002.39,0006.19,0001.24
2024-05-07 11:16:00,SystemResetWarning,0815.9,5.01,000.00,021.0,020.4,000.0,029.2,022.7,011.5,0000.0,0002.40,0006.17,0001.23
2024-05-07 11:17:00,SystemResetWarning,0815.8,5.01,000.00,021.0,020.4,000.0,029.2,022.6,011.3,0000.0,0002.37,0006.17,0001.23
2024-05-07 11:18:00,SystemResetWarning,0815.9,5.00,000.00,021.0,020.4,000.0,029.2,022.6,011.4,0000.0,0002.36,0006.70,0001.23
2024-05-07 11:19:00,SystemResetWarning,0815.9,5.00,000.00,021.0,020.4,000.0,029.2,022.6,011.4,0000.0,0002.43,0007.31,0001.25
2024-05-07 11:20:00,SystemResetWarning,0815.9,5.00,000.00,021.0,020.4,000.0,029.2,022.6,011.5,0000.0,0002.44,0007.82,0001.23
2024-05-07 11:21:00,SystemResetWarning,0816.1,5.00,000.00,021.0,020.4,000.0,029.2,022.6,011.7,0000.0,0002.48,0007.93,0001.24
2024-05-07 11:22:00,SystemResetWarning,0816.1,4.99,000.00,021.0,020.4,000.0,029.2,022.6,011.8,0000.0,0002.47,0007.93,0001.25
2024-05-07 11:23:00,SystemResetWarning,0816.1,4.99,000.00,021.0,020.4,000.0,029.2,022.7,011.9,0000.0,0002.47,0008.28,0001.26
2024-05-07 11:24:00,SystemResetWarning,0816.1,5.00,000.00,021.0,020.4,000.0,029.2,022.7,011.9,0000.0,0002.44,0008.38,0001.25
2024-05-07 11:25:00,SystemResetWarning,0816.0,5.00,000.00,021.0,020.4,000.0,029.2,022.7,012.1,0000.0,0002.35,0008.13,0001.24
2024-05-07 11:26:00,SystemResetWarning,0816.0,5.00,000.00,021.0,020.4,000.0,029.2,022.6,012.1,0000.0,0002.25,0007.42,0001.24
2024-05-07 11:27:00,SystemResetWarning,0816.1,5.01,000.00,021.0,020.3,000.0,029.2,022.6,012.1,0000.0,0002.19,0007.31,0001.23
2024-05-07 11:28:00,SystemResetWarning,0816.0,5.00,000.00,021.0,020.3,000.0,029.2,022.6,012.1,0000.0,0002.23,0007.32,0001.22
2024-05-07 11:29:00,SystemResetWarning,0816.0,5.00,000.00,021.0,020.3,000.0,029.2,022.6,012.3,0000.0,0002.20,0006.74,0001.21
2024-05-07 11:30:00,SystemResetWarning,0816.0,4.99,000.00,021.0,020.3,000.0,029.2,022.6,012.2,0000.0,0002.10,0005.93,0001.18
2024-05-07 11:31:00,SystemResetWarning,0816.0,4.99,000.00,021.0,020.4,000.0,029.2,022.6,012.2,0000.0,0002.11,0005.02,0001.18
2024-05-07 11:32:00,SystemResetWarning,0815.9,4.99,000.00,021.0,020.4,000.0,029.2,022.6,012.2,0000.0,0002.10,0004.99,0001.18
2024-05-07 11:33:00,SystemResetWarning,0816.0,5.01,000.00,021.0,020.4,000.0,029.2,022.7,012.2,0000.0,0002.10,0004.99,0001.17
2024-05-07 11:34:00,SystemResetWarning,0816.1,5.01,000.00,021.0,020.4,000.0,029.2,022.6,012.0,0000.0,0002.06,0004.19,0001.16
2024-05-07 11:35:00,SystemResetWarning,0816.1,5.00,000.00,021.0,020.3,000.0,029.2,022.6,012.2,0000.0,0002.05,0003.93,0001.16
2024-05-07 11:36:00,SystemResetWarning,0816.1,5.00,000.00,021.0,020.3,000.0,029.2,022.6,012.4,0000.0,0002.08,0003.98,0001.16
2024-05-07 11:37:00,SystemResetWarning,0816.1,5.00,000.00,021.0,020.3,000.0,029.2,022.6,012.4,0000.0,0002.17,0004.32,0001.16
2024-05-07 11:38:00,SystemResetWarning,0816.0,5.00,000.00,021.0,020.3,000.0,029.2,022.6,012.5,0000.0,0002.21,0004.96,0001.18
2024-05-07 11:39:00,SystemResetWarning,0815.9,5.00,000.00,020.9,020.3,000.0,029.2,022.6,012.2,0000.0,0002.23,0005.43,0001.18
2024-05-07 11:40:00,SystemResetWarning,0815.9,4.99,000.00,020.9,020.3,000.0,029.2,022.6,011.9,0000.0,0002.27,0005.51,0001.19
2024-05-07 11:41:00,SystemResetWarning,0816.1,5.00,000.00,020.9,020.2,000.0,029.2,022.6,012.3,0000.0,0002.33,0005.66,0001.22
2024-05-07 11:42:00,SystemResetWarning,0816.1,5.00,000.00,020.9,020.2,000.0,029.2,022.6,012.4,0000.0,0002.33,0005.68,0001.23
2024-05-07 11:43:00,SystemResetWarning,0816.1,5.00,000.00,020.9,020.2,000.0,029.2,022.6,012.4,0000.0,0002.34,0005.76,0001.23
2024-05-07 11:44:00,SystemResetWarning,0816.1,5.00,000.00,020.9,020.2,000.0,029.2,022.5,012.6,0000.0,0002.30,0005.63,0001.22
2024-05-07 11:45:00,SystemResetWarning,0816.1,5.00,000.00,020.9,020.2,000.0,029.2,022.5,012.7,0000.0,0002.27,0005.54,0001.22
2024-05-07 11:46:00,SystemResetWarning,0816.1,5.01,000.00,020.9,020.2,000.0,029.2,022.5,012.7,0000.0,0002.31,0005.63,0001.22
2024-05-07 11:47:00,SystemResetWarning,0816.1,5.00,000.00,020.9,020.2,000.0,029.2,022.6,012.5,0000.0,0002.27,0005.53,0001.21
2024-05-07 11:48:00,SystemResetWarning,0816.2,4.99,000.00,020.9,020.2,000.0,029.2,022.5,012.6,0000.0,0002.27,0005.87,0001.22
2024-05-07 11:49:00,SystemResetWarning,0816.1,4.99,000.00,020.9,020.2,000.0,029.2,022.5,012.7,0000.0,0002.28,0006.45,0001.24
2024-05-07 11:50:00,SystemResetWarning,0816.1,5.00,000.00,020.9,020.2,000.0,029.2,022.5,012.8,0000.0,0002.24,0005.93,0001.26
2024-05-07 11:51:00,SystemResetWarning,0816.1,5.01,000.00,020.9,020.2,000.0,029.2,022.5,012.7,0000.0,0002.23,0005.95,0001.26
2024-05-07 11:52:00,SystemResetWarning,0816.1,5.01,000.00,020.9,020.2,000.0,029.2,022.6,012.5,0000.0,0002.20,0005.92,0001.26
2024-05-07 11:53:00,SystemResetWarning,0816.1,5.00,000.00,020.9,020.2,000.0,029.2,022.6,012.6,0000.0,0002.17,0005.86,0001.25
2024-05-07 11:54:00,SystemResetWarning,0815.9,4.99,000.00,020.9,020.3,000.0,029.2,022.5,012.6,0000.0,0002.14,0005.64,0001.24
2024-05-07 11:55:00,SystemResetWarning,0816.0,4.99,000.00,020.9,020.3,000.0,029.2,022.6,012.3,0000.0,0002.18,0005.83,0001.24
2024-05-07 11:56:00,SystemResetWarning,0815.9,5.00,000.00,020.9,020.3,000.0,029.2,022.6,011.9,0000.0,0002.19,0005.90,0001.25
2024-05-07 11:57:00,SystemResetWarning,0815.9,5.01,000.00,020.9,020.2,000.0,029.2,022.6,011.8,0000.0,0002.17,0005.90,0001.25
2024-05-07 11:58:00,SystemResetWarning,0816.1,5.00,000.00,020.9,020.2,000.0,029.2,022.6,011.9,0000.0,0002.27,0006.26,0001.25
2024-05-07 11:59:00,SystemResetWarning,0816.1,5.00,000.00,020.9,020.2,000.0,029.1,022.5,012.1,0000.0,0002.25,0005.96,0001.25
